Clark Regional (JVY)

 

Airport Diagram
No Airport Diagram Available
Current Weather/Forecast (VFR Conditions)
METAR KJVY 280415Z AUTO 36011KT 10SM UP SCT012 SCT017 M02/M03 A3038 RMK AO2 T10221035 TSNO
TAF

Airport Information

All Charts
General
Chart Name View
TAKEOFF MINIMUMS
ALTERNATE MINIMUMS
TAKEOFF MINIMUMS
ALTERNATE MINIMUMS

Arrivals
Chart Name Download
CHERI FOUR
DARBY SEVEN
REDSTONE SIX
CHERI FOUR
DARBY SEVEN
REDSTONE SIX

Approaches
Chart Name Download
ILS OR LOC RWY 18
RNAV (GPS) RWY 18
NDB RWY 18
ILS OR LOC RWY 18
RNAV (GPS) RWY 18
NDB RWY 18


Airport Statistics
Departures Arrivals Local
All Collected Stats since June 2016: 31 21 2
2021 Stats: 1 2 0
January Stats: 1 2 0

Inbound Traffic (Arrivals) - 0

No inbound traffic.


Outbound Traffic (Departures) - 0

No outbound traffic.


Local Traffic (Pattern) - 0

No local traffic.